Regional Weather Roundup
Issued by NWS

Home | Current Version | Previous Version | Graphics & Text | Print | Product List | Glossary On
Versions: 1 2 3 4 5 6 7 8 9 10 11 12 13 14 15 16 17 18 19 20 21 22 23 24 25 26 27 28 29 30 31 32 33 34 35 36 37 38 39 40 41 42 43 44 45 46 47 48 49 50
000
ASUS43 KLSX 280957
RWRMO

WEATHER SUMMARY FOR MISSOURI
NATIONAL WEATHER SERVICE SPRINGFIELD MO
400 AM CST TUE FEB 28 2017

NOTE: "FAIR" INDICATES FEW OR NO CLOUDS BELOW 12,000 FEET WITH NO
       SIGNIFICANT WEATHER AND/OR OBSTRUCTIONS TO VISIBILITY.
       CURRENT SKY AND/OR WEATHER CONDITIONS ARE NOT AVAILABLE FOR
       CHILLICOTHE AND FARMINGTON.

MOZ001>031-035>038-043-044-053-054-281100-
...NORTHERN AND WESTERN MISSOURI...

CITY           SKY/WX    TMP DP  RH WIND       PRES   REMARKS
KANSAS CTY INT CLOUDY    62  57  83 S17G26    29.68S
LEE`S SUMMIT   CLOUDY    62  58  86 S21G31    29.71F
ST JOSEPH      MOCLDY    63  58  83 S18G28    29.64F
CHILLICOTHE      N/A     61  56  83 S14G21    29.69F

$$
MOZ066>068-077>081-088>096-101>105-281100-
...SOUTHWEST MISSOURI...

CITY           SKY/WX    TMP DP  RH WIND       PRES   REMARKS
SPRINGFIELD    CLOUDY    59  56  89 S15       29.82F
JOPLIN         CLOUDY    63  60  90 S17G26    29.79S

$$
MOZ032>034-039>042-045>050-055>058-069>072-281100-
...CENTRAL MISSOURI...

CITY           SKY/WX    TMP DP  RH WIND       PRES   REMARKS
COLUMBIA       NOT AVBL
JEFFERSON CITY CLOUDY    60  53  77 S9        29.81F
ROLLA          CLOUDY    57  54  89 S17       29.83F
SEDALIA        CLOUDY    61  55  81 S17G26    29.76F
WARRENSBURG    CLOUDY    61  54  77 S15       29.72F

$$
MOZ051-052-059>065-281100-
...EAST CENTRAL MISSOURI...

CITY           SKY/WX    TMP DP  RH WIND       PRES   REMARKS
ST LOUIS INTL  PTCLDY    56  51  84 S10       29.87F

$$
MOZ072>076-082>087-097>100-106>115-281100-
...SOUTH CENTRAL AND SOUTHEAST MISSOURI...

CITY           SKY/WX    TMP DP  RH WIND       PRES   REMARKS
CAPE GIRARDEAU CLOUDY    54  50  86 S7        29.97F
FARMINGTON     CLOUDY    54  52  94 S10       29.92F
POPLAR BLUFF   CLOUDY    56  54  93 S8        29.96F
WEST PLAINS    CLOUDY    55  54  96 S7        29.93S

$$



USA.gov is the U.S. government's official web portal to all federal, state and local government web resources and services.